Location: Newark
(43.4306°N, 0.3089°E)
Time: 10:19:07
(UTC+00:00)

S-56A Canister/Altair - Pass Details

Date: 28 August 2019
Orbit: 633 x 2499 km, 38.9° (Epoch: 17 September)

Event Time Altitude Azimuth Distance (km) Brightness Sun altitude
Rises 22:58:44 0° 271° (W) 3,050 10.8 -35.2°
Enters shadow 22:59:14 - 270° (W) 2,851 10.7 -35.3°
Reaches altitude 10° 23:01:20 10° 261° (W) 2,047 - -35.4°
Maximum altitude 23:05:20 32° 198° (SSW) 1,089 - -35.6°
Drops below altitude 10° 23:09:26 10° 135° (SE) 2,096 - -35.8°
Sets 23:12:08 0° 125° (SE) 3,137 - -35.9°
